Tracking 18032 objects as of 24-March-2017
HD Live streaming from Space Station
objects crossing your sky now

OXP 1

Track OXP 1 now!
10-day predictions
OXP 1 is classified as:


NORAD ID: 22489
Int'l Code: 1993-009A
Perigee: 720.4 km
Apogee: 778.9 km
Inclination: 25.0 °
Period: 99.7 minutes
Semi major axis: 7120 km
RCS: 1.9581 m2 (large)
Launch date: February 9, 1993
Source: United States (US)
Launch site: AIR FORCE EASTERN TEST RANGE (AFETR)
Your satellite tracking list
Your tracking list is empty





NASA's NSSDC Master Catalog

Two Line Element Set (TLE):
1 22489U 93009A   17081.53105582 +.00000246 +00000-0 +17413-4 0  9994
2 22489 024.9643 122.5582 0041086 141.2290 219.1176 14.44843633272556
Source of the keplerian elements: AFSPC